Starlink 31126

operational
NORAD ID: 58675 Int'l Des: 2023-211 Owner: SPXS Country: US Constellation: starlink
LEOCIRCULAR

Starlink 31126について

説明を読み込み中...

リアルタイム位置

3D地球を読み込み中...

次回通過

高度履歴

Altitude vs Time

uPlot chart will show altitude changes over time

軌道要素

1 58675U 23211J 25353.22356802 -.00000631 00000-0 -13394-4 0 9992
2 58675 43.0039 179.2454 0003080 274.0835 85.9665 15.27571771110165
Epoch: Dec 19, 2025 • Age: 15 hours

現在のステータス

高度 488.3 km
速度 7.63 km/s
衛星直下点 43.06°N, 125.69°W
打ち上げ日 Dec 29, 2023
運用期間 1.9 years
タイプ internet

技術仕様

分類 Payload
質量 730.00 kg
乾燥質量 700.00 kg
総質量 730.00 kg
長さ 0.30 m
直径 4.10 m
スパン 29.00 m
形状 Box + pan
製造者 SPXS
バスタイプ Starlink V2M
フェーズステータス In Orbit
所有者/国 SPXS/US

大規模コンステレーション

Loading constellations...